User: anonymous   Login
Location: Oshawa
(43.9000°N, 78.8670°W)
Time: 11:28:28
(UTC-04:00)
Language:

ITAMSAT 1 - Orbit

View from above orbital plane
View from above orbital plane
View from above satellite
View from above satellite

Ground track
Ground track

The orbit data is extracted from the following two-line orbital elements,

1 22826U 93061D   16274.55265693  .00000037  00000-0  31876-4 0  9999
2 22826  98.7663 231.6258 0009129   8.0635 352.0692 14.30295931200467
Epoch (UTC): 30 September 2016 13:15:49
Eccentricity: 0.0009129
inclination: 98.7663°
perigee height: 784 km
apogee height: 797 km
right ascension of ascending node: 231.6258°
argument of perigee: 8.0635°
revolutions per day: 14.30295931
mean anomaly at epoch: 352.0692°
orbit number at epoch: 20046

The dashed part of the orbit path shows where the satellite is in the earth's shadow,  

DLR